{"data":{"norad_id":51647,"epoch":"2026-09-20T01:55:10.579584Z","epoch_age_seconds":61964,"freshness":"FRESH","line1":"1 51647U 22012AB  26263.07998356  .00000660  00000+0  18533-2 0  9999","line2":"2 51647  87.8905  17.3807 0001619 113.6570 246.4727 13.10373825221772","mean_motion":13.10373825,"eccentricity":0.0001619,"inclination_deg":87.8905,"raan_deg":17.3807,"arg_perigee_deg":113.657,"mean_anomaly_deg":246.4727,"bstar":0.0018533,"rev_number":22177,"period_min":109.89230496877,"perigee_km":1220.4828375819,"apogee_km":1222.9436690939,"semimajor_km":7599.8502533379,"source":"CELESTRAK","updated_at":"2026-09-20T09:00:44.712796Z"}}